This is the latest recevied weather packets stored in our database for station/object DK4DAX-2. If no packets are shown the sender has not sent any weather packets the latest 10 day(s).
| Time | Temp. | Humidity | Pressure | Rain* | Wind** | Luminosity | Snow |
|---|---|---|---|---|---|---|---|
| 1777255204 | 7.78° C | 60% | 1016 hPa | 0 mm | - | - | - |
| 1777254303 | 8.33° C | 60% | 1016.1 hPa | 0 mm | - | - | - |
| 1777253404 | 8.33° C | 58% | 1016.1 hPa | 0 mm | - | - | - |
| 1777252503 | 8.89° C | 55% | 1016.1 hPa | 0 mm | - | - | - |
| 1777251604 | 8.89° C | 54% | 1016.2 hPa | 0 mm | - | - | - |
| 1777250704 | 9.44° C | 52% | 1016.2 hPa | 0 mm | - | - | - |
| 1777249803 | 9.44° C | 51% | 1016 hPa | 0 mm | - | - | - |
| 1777248904 | 10° C | 49% | 1016.1 hPa | 0 mm | - | - | - |
| 1777248004 | 10.56° C | 48% | 1016.5 hPa | 0 mm | - | - | - |
| 1777247103 | 10.56° C | 47% | 1016.2 hPa | 0 mm | - | - | - |
| 1777246204 | 10.56° C | 45% | 1016.2 hPa | 0 mm | - | - | - |
| 1777245303 | 10.56° C | 45% | 1016.3 hPa | 0 mm | - | - | - |
| 1777244397 | 11.11° C | 43% | 1016.4 hPa | 0 mm | - | - | - |
| 1777243496 | 11.11° C | 43% | 1016.4 hPa | 0 mm | - | - | - |
| 1777242597 | 11.11° C | 42% | 1016.3 hPa | 0 mm | - | - | - |
| 1777241697 | 11.67° C | 41% | 1016.2 hPa | 0 mm | - | - | - |
| 1777240798 | 11.67° C | 40% | 1016.2 hPa | 0 mm | - | - | - |
| 1777239896 | 12.22° C | 38% | 1016.3 hPa | 0 mm | - | - | - |
| 1777238997 | 12.78° C | 35% | 1016.6 hPa | 0 mm | - | - | - |
| 1777238097 | 13.33° C | 33% | 1016.5 hPa | 0 mm | - | - | - |
| 1777237197 | 13.33° C | 33% | 1016.6 hPa | 0 mm | - | - | - |
| 1777236297 | 13.89° C | 32% | 1016.4 hPa | 0 mm | - | - | - |
| 1777235397 | 13.89° C | 32% | 1016.2 hPa | 0 mm | - | - | - |
| 1777234497 | 14.44° C | 29% | 1016.2 hPa | 0 mm | - | - | - |
| 1777233597 | 14.44° C | 27% | 1016.1 hPa | 0 mm | - | - | - |
* Rain latest hour (hover to see other rain measurements)
** Current wind speed in m/s (hover to see current wind gust speed)